TimeCDT,TemperatureF,Dew PointF,Humidity,Sea Level PressureIn,VisibilityMPH,Wind Direction,Wind SpeedMPH,Gust SpeedMPH,PrecipitationIn,Events,Conditions,WindDirDegrees,DateUTC
12:22 AM,73.9,66.9,79,29.86,10.0,SSE,10.4,-,N/A,,Overcast,150,2013-05-19 05:22:00
12:38 AM,73.0,66.9,81,29.87,10.0,SSE,11.5,-,N/A,,Mostly Cloudy,160,2013-05-19 05:38:00
12:47 AM,73.0,66.9,81,29.86,10.0,SSE,10.4,-,N/A,,Mostly Cloudy,150,2013-05-19 05:47:00
12:54 AM,73.0,66.9,81,29.84,10.0,SSE,9.2,-,N/A,,Mostly Cloudy,150,2013-05-19 05:54:00
1:16 AM,73.0,66.9,81,29.86,10.0,SE,8.1,-,N/A,,Scattered Clouds,140,2013-05-19 06:16:00
1:54 AM,72.0,66.9,84,29.82,10.0,SE,9.2,-,N/A,,Clear,140,2013-05-19 06:54:00
2:54 AM,71.1,68.0,90,29.83,9.0,SE,8.1,-,N/A,,Clear,140,2013-05-19 07:54:00
3:54 AM,70.0,68.0,93,29.83,7.0,SSE,9.2,-,N/A,,Clear,150,2013-05-19 08:54:00
4:54 AM,71.1,68.0,90,29.81,6.0,SE,8.1,-,N/A,,Mostly Cloudy,140,2013-05-19 09:54:00
5:54 AM,69.1,66.9,93,29.79,3.0,Calm,Calm,-,N/A,,Partly Cloudy,0,2013-05-19 10:54:00
6:54 AM,69.8,68.0,94,29.81,3.0,SE,10.4,-,N/A,,Clear,130,2013-05-19 11:54:00
7:29 AM,71.1,68.0,90,29.83,3.0,South,10.4,-,N/A,,Partly Cloudy,170,2013-05-19 12:29:00
7:47 AM,72.0,69.1,91,29.86,4.0,South,10.4,-,N/A,,Mostly Cloudy,190,2013-05-19 12:47:00
7:54 AM,72.0,69.1,91,29.84,4.0,South,10.4,-,N/A,,Mostly Cloudy,180,2013-05-19 12:54:00
8:32 AM,73.9,69.1,85,29.89,5.0,SSW,13.8,-,N/A,,Haze,200,2013-05-19 13:32:00
8:54 AM,75.0,70.0,84,29.86,5.0,South,8.1,-,N/A,,Haze,190,2013-05-19 13:54:00
9:54 AM,77.0,69.1,76,29.84,7.0,Calm,Calm,-,N/A,,Partly Cloudy,0,2013-05-19 14:54:00
10:05 AM,75.9,69.1,79,29.86,7.0,ESE,6.9,-,0.00,Rain-Thunderstorm,Light Thunderstorms and Rain,120,2013-05-19 15:05:00
10:21 AM,75.9,70.0,82,29.83,7.0,SE,5.8,-,0.00,,Partly Cloudy,130,2013-05-19 15:21:00
10:54 AM,77.0,71.1,82,29.81,6.0,SE,6.9,-,0.00,,Haze,130,2013-05-19 15:54:00
11:54 AM,82.9,71.1,67,29.79,9.0,South,15.0,-,N/A,,Partly Cloudy,170,2013-05-19 16:54:00
12:54 PM,84.9,72.0,65,29.73,8.0,SSE,17.3,-,N/A,,Partly Cloudy,160,2013-05-19 17:54:00
1:54 PM,87.8,68.0,52,29.74,10.0,SSE,25.3,32.2,N/A,,Clear,160,2013-05-19 18:54:00
2:54 PM,87.8,68.0,52,29.72,10.0,South,19.6,27.6,N/A,,Partly Cloudy,170,2013-05-19 19:54:00
3:54 PM,86.0,66.0,51,29.68,10.0,South,20.7,27.6,N/A,,Partly Cloudy,170,2013-05-19 20:54:00
4:54 PM,87.1,64.9,48,29.65,10.0,South,19.6,28.8,N/A,,Clear,190,2013-05-19 21:54:00
5:54 PM,86.0,64.0,48,29.62,10.0,South,20.7,29.9,N/A,,Clear,180,2013-05-19 22:54:00
6:54 PM,84.0,64.0,51,29.63,10.0,South,12.7,24.2,N/A,,Clear,180,2013-05-19 23:54:00
7:54 PM,82.0,63.0,52,29.64,10.0,South,18.4,26.5,N/A,,Clear,170,2013-05-20 00:54:00
8:54 PM,81.0,63.0,54,29.69,10.0,South,13.8,-,N/A,,Clear,180,2013-05-20 01:54:00
9:54 PM,80.1,62.1,54,29.73,10.0,SSW,16.1,-,N/A,,Overcast,210,2013-05-20 02:54:00
10:54 PM,73.0,66.9,81,29.73,8.0,South,20.7,31.1,0.01,Rain,Light Rain,170,2013-05-20 03:54:00
11:10 PM,75.0,62.1,64,29.67,10.0,SSE,16.1,24.2,0.01,Rain,Light Rain,150,2013-05-20 04:10:00
11:54 PM,72.0,66.0,81,29.70,10.0,WSW,5.8,-,0.01,,Clear,250,2013-05-20 04:54:00